Flag for USA

Past Weather in Stuart, Florida, USA — Yesterday and Last 2 Weeks

Now
86 °F

Scattered showers. Cloudy.


Feels Like: 92 °F
Forecast: 85 / 77 °F
Wind: 15 mph from Southeast

Location: Witham Field Airport
Current Time: Sep 24, 2020 at 3:01:40 pm
Latest Report: Sep 24, 2020 at 1:47 pm
Visibility: 7 mi
Pressure29.99 "Hg
Humidity: 62%
Dew Point: 72 °F
Location of StuartLocation

Past Weather in Stuart — Graph

°F

Stuart Temperature Yesterday

Maximum temperature yesterday: 86 °F (at 11:47 am)
Minimum temperature yesterday: 79 °F (at 12:15 am)
Average temperature yesterday: 80 °F

High & Low Weather Summary for the Past Weeks

 TemperatureHumidityPressure
High93 °F (Sep 17, 2:47 pm)94% (Sep 12, 11:35 pm)30.08 "Hg (Sep 12, 11:35 pm)
Low73 °F (Sep 12, 10:55 pm)40% (Sep 22, 12:50 pm)29.80 "Hg (Sep 12, 3:55 am)
Average81 °F74%29.96 "Hg
* Reported Sep 9 1:47 pm — Sep 24 1:47 pm, Stuart. Weather by CustomWeather, © 2020

Note: Actual official high and low records may vary slightly from our data, if they occured in-between our weather recording intervals... More about our weather records

Stuart Weather History for the Previous 24 Hours

Scroll right to see more
 ConditionsComfort  
Time TempWeatherWind HumidityBarometerVisibility
1:47 pm
Thu, Sep 24
86 °FScattered showers. Cloudy.15 mph62%29.99 "Hg7 mi
12:47 pm86 °FScattered showers. Broken clouds.16 mph59%30.01 "Hg7 mi
11:48 am86 °FScattered clouds.15 mph59%30.02 "Hg7 mi
10:48 am84 °FScattered clouds.17 mph62%30.02 "Hg7 mi
9:50 am82 °FBroken clouds.14 mph66%30.02 "Hg7 mi
8:47 am82 °FBroken clouds.12 mph66%30.00 "Hg7 mi
7:47 am77 °FMore clouds than sun.6 mph83%29.98 "Hg7 mi
6:50 am79 °FMostly cloudy.6 mph79%29.98 "Hg7 mi
6:35 am79 °FOvercast.No wind74%29.97 "Hg10 mi
5:55 am81 °FOvercast.10 mph66%29.96 "Hg10 mi
5:35 am81 °FMostly cloudy.12 mph66%29.95 "Hg10 mi
5:15 am81 °FOvercast.12 mph66%29.95 "Hg10 mi
4:55 am81 °FMostly cloudy.9 mph66%29.95 "Hg10 mi
4:35 am81 °FMostly cloudy.9 mph66%29.95 "Hg10 mi
4:15 am81 °FOvercast.13 mph66%29.95 "Hg10 mi
3:55 am81 °FOvercast.12 mph66%29.95 "Hg10 mi
3:35 am81 °FOvercast.9 mph66%29.95 "Hg10 mi
3:15 am79 °FMostly cloudy.12 mph70%29.96 "Hg10 mi
2:55 am79 °FPassing clouds.7 mph70%29.96 "Hg10 mi
2:35 am79 °FClear.9 mph70%29.97 "Hg10 mi
1:55 am79 °FPassing clouds.7 mph70%29.98 "Hg10 mi
1:35 am79 °FClear.9 mph70%29.99 "Hg10 mi
1:15 am79 °FClear.9 mph70%29.99 "Hg10 mi
12:55 am79 °FPassing clouds.7 mph70%30.00 "Hg10 mi
12:35 am79 °FClear.6 mph70%30.00 "Hg10 mi
12:15 am79 °FPassing clouds.6 mph70%30.00 "Hg10 mi
11:55 pm
Wed, Sep 23
79 °FClear.7 mph70%30.01 "Hg10 mi
11:35 pm79 °FClear.7 mph65%30.01 "Hg10 mi
11:15 pm79 °FClear.8 mph70%30.02 "Hg10 mi
10:35 pm79 °FPassing clouds.5 mph70%30.02 "Hg10 mi
10:15 pm79 °FClear.6 mph65%30.02 "Hg10 mi
8:47 pm79 °FPassing clouds.6 mph65%30.00 "Hg7 mi
7:47 pm81 °FPassing clouds.12 mph62%29.99 "Hg7 mi
6:47 pm82 °FScattered clouds.12 mph58%29.98 "Hg7 mi
5:47 pm82 °FScattered clouds.9 mph55%29.98 "Hg7 mi
4:47 pm84 °FScattered clouds.12 mph51%29.97 "Hg7 mi
3:47 pm84 °FScattered clouds.14 mph48%29.98 "Hg7 mi
Weather by CustomWeather, © 2020

See weather overview